Overview Statistics Trail Chart Weather Telemetry Raw packets
 

This is the latest recevied weather packets stored in our database for station/object 4S6DRJ-13. If no packets are shown the sender has not sent any weather packets the latest 10 day(s).

<< 338 339 340 341 342 343 344 >>
Time Temp. Humidity Pressure Rain* Wind** Luminosity Snow
1787961623 27.78° C 85% 1009.1 hPa 0 mm 1.34 m/s, 221° 0 W/m² -
1787961562 27.78° C 85% 1009 hPa 0 mm 0.45 m/s, 213° 0 W/m² -
1787961500 27.78° C 85% 1009 hPa 0 mm 0 m/s 0 W/m² -
1787961440 27.78° C 85% 1008.9 hPa 0 mm 0.89 m/s, 235° 0 W/m² -
1787961379 27.78° C 85% 1008.9 hPa 0 mm 1.79 m/s, 327° 0 W/m² -
1787961318 27.78° C 85% 1008.9 hPa 0 mm 1.79 m/s, 239° 0 W/m² -
1787961257 27.78° C 85% 1009.1 hPa 0 mm 1.79 m/s, 266° 0 W/m² -
1787961196 27.78° C 85% 1009.2 hPa 0 mm 1.34 m/s, 141° 0 W/m² -
1787961134 27.78° C 85% 1008.9 hPa 0 mm 0.45 m/s, 224° 0 W/m² -
1787961074 27.78° C 85% 1008.8 hPa 0 mm 0 m/s 0 W/m² -
1787961013 27.78° C 85% 1009 hPa 0 mm 1.34 m/s, 50° 0 W/m² -
1787960952 27.78° C 85% 1009 hPa 0 mm 1.79 m/s, 309° 0 W/m² -
1787960891 27.78° C 85% 1008.7 hPa 0 mm 0.89 m/s, 199° 0 W/m² -
1787960830 27.78° C 85% 1009 hPa 0 mm 0.45 m/s, 236° 0 W/m² -
1787960768 27.78° C 85% 1009 hPa 0 mm 0.89 m/s, 229° 0 W/m² -
1787960708 27.78° C 85% 1009 hPa 0 mm 0.45 m/s, 227° 0 W/m² -
1787960647 27.78° C 85% 1008.8 hPa 0 mm 1.34 m/s, 187° 0 W/m² -
1787960586 27.78° C 85% 1008.9 hPa 0 mm 1.34 m/s, 219° 0 W/m² -
1787960524 27.78° C 85% 1008.7 hPa 0 mm 0.89 m/s, 229° 0 W/m² -
1787960463 27.78° C 85% 1008.8 hPa 0 mm 0.45 m/s, 258° 0 W/m² -
1787960403 27.78° C 85% 1008.9 hPa 0 mm 0.89 m/s, 231° 0 W/m² -
1787960342 27.78° C 85% 1008.8 hPa 0 mm 0.45 m/s, 152° 0 W/m² -
1787960281 27.78° C 85% 1008.9 hPa 0 mm 0.89 m/s, 289° 0 W/m² -
1787960220 27.78° C 85% 1009 hPa 0 mm 0.89 m/s, 264° 0 W/m² -
1787960159 27.78° C 85% 1008.9 hPa 0 mm 0.89 m/s, 26° 0 W/m² -

* Rain latest hour (hover to see other rain measurements)
** Current wind speed in m/s (hover to see current wind gust speed)